Location: ?????
(55.8833°N, 37.6500°E)
Time: 16:27:23
(UTC+00:00)

STARLINK-1068 - Pass Details

Date: 27 February 2020
Orbit: 548 x 551 km, 53.0° (Epoch: 30 March)

Event Time Altitude Azimuth Distance (km) Brightness Sun altitude
Rises 16:06:50 0° 237° (WSW) 2,712 8.2 -10.4°
Reaches altitude 10° 16:09:08 10° 231° (SW) 1,821 7.1 -10.7°
Maximum altitude 16:13:02 41° 160° (SSE) 800 4.3 -11.2°
Enters shadow 16:15:48 17° 97° (E) 1,412 5.0 -11.6°
